Find OneWeb SL0436

NORAD ID: 51633 Int'l Des: 2022-012 Owner: ONEWEBN Country: UK Constellation: oneweb operational
LEOCIRCULARPOLARONEWEB_TYPE

实时位置

正在加载3D地球...

关于 OneWeb SL0436

正在加载描述...

即将过境

Passes for default location (London). Set your location on the main map for personalized predictions.

高度历史

Loading altitude history...

两行轨道根数

1 51633U 22012M 26124.39703704 .00000071 00000-0 14910-3 0 9999
2 51633 87.9185 14.5457 0001890 74.3248 285.8092 13.17648371207914
Epoch: May 4, 2026 • Age: 18 hours

当前状态

高度 1196.4 km
速度 7.26 km/s
星下点 30.13°N, 93.97°E
发射日期 Feb 10, 2022
运行时间 4.2 years
类型 internet

技术详情

分类 Payload
质量 148.00 kg
干质量 140.00 kg
总质量 148.00 kg
长度 1.30 m
直径 1.00 m
跨度 5.00 m
形状 Trapezoid+2 pan
制造商 ONEWUS
平台类型 ARROW
阶段状态 In Orbit
所有者/国家 ONEWEBN/UK

Most Searched